Wind_Speed
7 7 7 5 5 5 6 6 5 5 5 4 4 4 5 5 6 7 8 8 8 9 10 9 10 10 11 10 9 9 9 9 8 7 7 7 7 7 7 6 6 5 6
7 7 7 5 5 5 6 6 6 6 6 5 5 5 5 6 7 7 8 8 8 8 9 10 10 11 10 9 9 9 9 8 8 7 7 7 7 7 6 6 6 5 5
8 7 7 6 5 5 6 6 6 6 6 6 6 6 6 7 7 7 7 8 8 8 9 10 10 10 10 9 8 8 8 8 7 7 7 7 7 6 6 6 6 5 5
8 8 7 5 5 5 5 6 6 6 6 6 6 6 7 8 7 7 7 8 8 8 9 9 9 10 9 9 9 8 7 7 7 7 8 7 7 6 6 6 5 5 5
8 7 7 6 6 6 6 5 5 6 6 6 6 6 7 8 8 7 8 8 8 9 9 8 9 9 9 8 8 8 7 6 6 7 7 6 6 5 5 5 5 5 5
8 8 8 7 7 6 6 6 6 6 7 6 6 6 7 8 7 7 8 9 9 9 8 8 9 9 8 8 8 7 6 5 6 6 6 6 5 5 5 5 5 4 5
10 9 9 9 8 7 7 7 8 7 7 7 7 7 8 8 7 8 9 10 9 8 8 7 8 8 7 7 7 6 5 5 4 5 5 5 5 5 5 5 4 4 4
12 11 9 9 9 9 8 8 8 8 8 8 8 8 7 8 8 8 8 8 9 9 8 7 7 8 7 6 6 5 5 4 5 5 5 6 5 6 5 5 4 5 5
13 12 11 11 10 9 9 9 8 9 9 9 8 8 8 8 8 8 8 8 8 8 7 7 7 7 7 6 5 5 4 5 6 5 5 5 5 6 5 5 5 5 5
14 13 12 11 11 10 9 9 8 8 8 8 7 8 8 7 7 7 7 7 7 7 7 6 7 7 7 6 6 6 6 5 5 5 4 4 5 5 5 5 5 6 6
14 13 12 12 11 11 10 9 8 8 8 7 8 8 8 7 7 7 6 6 6 7 7 6 6 6 6 6 7 6 5 4 4 4 4 4 4 5 5 5 5 5 5
14 13 13 12 12 11 11 10 9 8 8 8 8 8 8 8 7 7 6 6 7 7 6 6 7 6 5 6 6 6 5 5 5 4 4 4 4 4 4 4 5 5 5
14 13 12 12 12 12 10 9 9 9 8 8 8 8 8 8 8 8 7 6 6 6 6 5 5 5 5 5 5 4 4 5 5 5 4 4 4 4 3 4 4 5 5
15 14 13 11 11 11 11 10 9 8 8 7 7 7 8 8 8 7 7 6 6 6 6 5 5 5 5 4 4 3 4 4 4 4 4 4 3 4 4 3 4 4 4
16 15 14 13 12 12 12 11 10 9 8 8 7 7 7 7 8 7 6 6 6 6 6 6 5 4 4 3 3 2 2 3 3 4 4 3 3 4 4 4 4 4 4
16 15 14 14 13 12 12 12 11 9 8 7 7 6 6 7 7 7 7 6 6 6 6 5 4 4 4 3 3 2 1 2 2 3 3 4 5 5 5 5 5 5 5
15 15 14 14 14 13 13 13 13 11 10 8 7 8 7 7 6 7 6 6 6 5 5 4 4 4 3 3 3 2 2 2 2 2 3 4 4 5 5 6 6 7 7
15 14 13 13 13 13 13 12 13 12 11 10 9 8 8 7 6 6 6 6 5 4 4 3 3 3 3 2 2 1 1 2 3 3 4 4 4 5 6 6 7 7 8
14 14 13 13 13 13 13 12 12 11 11 10 9 9 8 7 6 6 5 5 4 4 3 2 1 2 2 2 1 1 1 1 3 4 4 5 5 5 6 6 7 7 8
14 14 13 13 13 13 13 12 11 11 10 10 9 9 8 7 7 5 6 5 4 4 3 2 2 2 2 2 2 2 3 3 3 4 5 6 6 7 7 7 8 9 10
13 14 13 13 12 12 12 12 11 10 10 9 8 8 7 6 6 5 4 5 4 3 3 3 3 3 3 3 3 3 3 4 4 5 6 6 7 7 7 8 9 10 11
12 12 12 12 12 11 11 11 10 10 9 8 8 8 7 7 6 5 4 4 5 4 4 3 3 4 4 4 4 5 5 5 6 6 6 6 7 7 8 9 10 11 12
11 11 11 10 10 10 10 10 10 10 10 9 9 8 8 7 7 6 6 5 5 4 4 4 5 5 5 6 6 6 7 7 7 8 8 8 8 8 9 9 9 10 12
9 9 10 10 9 9 9 9 9 10 9 9 8 7 7 7 6 5 5 5 6 5 5 5 5 6 6 7 7 8 8 8 8 8 9 9 10 10 10 10 10 11 11
9 8 8 9 9 9 9 9 9 9 8 8 7 7 7 6 6 5 5 5 6 6 6 6 6 6 7 7 8 8 8 9 9 9 9 10 10 11 11 11 11 12 11
8 8 7 8 8 8 8 8 8 8 8 7 7 7 7 6 6 6 5 6 6 6 6 6 7 8 8 8 8 8 9 9 9 9 10 10 11 10 11 11 11 12 13
Wind_Direction
54 59 67 75 80 75 75 80 81 85 89 89 96 112 125 126 132 141 140 135 134 141 141 139 132 136 136 138 141 143 146 157 160 164 170 165 159 160 157 156 156 154 155
48 52 60 72 86 85 83 85 83 83 88 95 101 115 124 124 130 139 138 136 137 140 140 139 134 137 137 139 144 145 152 157 154 156 163 162 158 158 159 155 150 153 154
48 54 59 72 87 92 84 81 84 87 93 98 103 112 121 125 130 134 134 137 137 140 144 147 145 145 141 136 142 146 149 150 152 158 161 157 155 158 158 151 145 148 149
49 54 63 79 83 84 84 80 87 92 97 101 106 111 113 122 126 129 130 133 137 141 147 148 151 149 145 142 143 145 149 155 159 163 163 159 162 165 162 156 149 150 152
51 59 69 78 78 82 82 85 89 92 99 102 109 112 114 123 129 131 133 136 138 141 147 148 150 151 145 142 141 143 141 140 150 157 157 160 165 167 164 159 155 155 159
54 65 71 79 79 78 80 84 87 91 98 104 112 118 122 126 127 130 135 136 140 141 142 143 147 142 140 142 139 138 140 143 145 154 162 164 159 163 162 157 159 165 162
61 68 71 70 73 78 83 86 90 92 97 106 116 122 125 126 125 126 137 136 136 137 138 141 146 144 141 139 136 137 144 148 152 162 170 166 151 155 159 160 160 155 156
58 63 67 65 71 77 79 86 94 97 100 106 112 119 124 123 125 124 130 137 140 140 142 141 148 144 144 143 145 148 151 151 161 168 173 162 153 150 152 150 141 138 145
56 61 65 65 70 76 80 85 90 94 97 102 105 111 119 122 125 126 125 133 139 148 148 142 147 147 149 151 157 160 162 161 165 167 164 159 159 155 144 141 142 146 146
57 61 64 66 71 78 80 82 88 93 95 99 101 103 111 116 118 124 128 133 140 148 144 143 147 147 154 155 158 166 167 157 161 161 164 157 160 153 144 147 151 153 152
58 62 63 68 72 76 80 80 81 84 87 94 99 102 104 112 115 122 126 133 139 140 137 139 139 135 146 157 165 169 165 159 161 158 162 170 173 159 147 147 153 163 164
59 61 61 66 69 71 72 72 73 77 85 91 97 103 106 112 116 115 118 128 137 135 132 129 134 141 151 159 161 158 153 158 166 166 166 175 181 177 160 159 163 173 175
60 59 60 68 70 68 67 70 75 78 86 91 97 103 107 107 106 109 122 131 132 125 121 126 140 148 153 159 162 156 155 162 172 174 175 173 185 186 182 180 177 179 185
62 62 64 68 69 66 64 68 74 78 82 89 101 108 106 102 100 110 117 126 124 121 126 129 137 140 145 149 155 162 167 176 180 187 185 184 200 207 198 194 194 198 201
60 62 64 65 66 66 64 65 70 78 89 89 90 95 100 101 98 101 99 105 117 120 117 109 115 116 120 136 149 158 163 171 180 186 191 208 216 214 217 218 219 222 223
58 61 61 61 64 66 65 64 65 70 82 83 84 91 101 108 101 86 91 96 101 108 111 113 112 104 104 106 127 145 162 186 181 200 211 228 231 229 233 232 226 230 239
57 60 61 62 63 63 63 67 68 73 75 78 82 80 95 103 94 84 84 90 90 95 102 100 97 87 79 85 116 161 186 199 209 224 233 228 230 242 248 246 243 242 250
56 59 61 63 64 64 64 68 67 68 70 72 73 75 82 89 91 83 84 88 88 87 91 92 84 80 69 76 96 124 166 212 234 237 235 234 240 247 251 255 257 254 260
56 59 61 64 65 66 67 67 64 67 67 69 71 71 73 75 75 78 83 79 72 64 66 75 78 67 48 26 21 17 341 305 265 252 255 253 250 250 256 260 263 262 266
55 57 60 63 65 66 68 68 69 66 64 65 67 68 68 67 66 70 74 72 65 54 51 51 34 18 4 333 325 330 323 316 307 284 266 259 261 260 261 264 266 267 268
52 55 58 61 64 66 66 66 65 61 59 60 61 62 61 59 57 56 60 52 51 51 42 30 14 2 347 325 302 299 300 299 300 304 284 270 268 268 265 265 266 267 269
50 53 56 59 61 62 63 61 58 55 55 59 57 56 56 55 49 38 35 34 36 31 22 8 352 345 333 325 317 300 289 285 292 296 298 286 275 275 276 275 270 268 266
47 51 52 53 55 57 57 55 52 52 51 51 51 48 48 50 45 35 27 21 17 11 3 352 339 329 324 317 311 305 299 292 293 293 289 284 281 281 278 281 280 275 269
42 45 47 46 46 48 49 48 44 43 44 45 42 38 41 40 32 23 16 4 355 353 353 348 340 324 316 311 306 305 304 301 294 290 287 282 277 277 279 280 278 275 274
34 36 39 38 43 44 42 41 38 38 39 37 35 36 31 22 18 15 8 0 351 349 347 341 336 326 316 312 309 308 309 307 304 297 292 284 283 281 278 278 279 275 273
25 26 33 34 34 33 32 31 32 33 32 29 27 24 24 21 18 11 1 359 357 351 345 340 337 333 327 319 315 313 310 309 307 303 298 297 292 290 288 284 283 280 275
Height
5872 5871 5870 5870 5869 5868 5868 5868 5868 5868 5868 5868 5868 5868 5868 5868 5868 5869 5870 5871 5871 5872 5872 5873 5874 5875 5876 5877 5878 5879 5880 5881 5882 5882 5883 5884 5885 5885 5886 5886 5886 5887 5887
5873 5872 5871 5871 5870 5869 5869 5869 5868 5868 5869 5869 5868 5868 5869 5869 5869 5870 5871 5871 5872 5872 5873 5874 5875 5876 5877 5878 5879 5880 5881 5881 5882 5882 5883 5884 5885 5885 5886 5886 5886 5887 5887
5874 5873 5872 5872 5871 5870 5870 5870 5870 5869 5869 5869 5869 5869 5869 5870 5870 5871 5871 5872 5872 5873 5874 5875 5876 5877 5878 5878 5879 5880 5881 5882 5882 5882 5883 5884 5885 5885 5885 5886 5886 5887 5887
5874 5874 5873 5872 5872 5872 5871 5871 5871 5870 5871 5871 5870 5870 5870 5871 5871 5872 5872 5872 5873 5873 5874 5875 5876 5877 5879 5879 5880 5881 5881 5882 5882 5882 5883 5884 5885 5885 5886 5886 5886 5886 5887
5875 5874 5874 5873 5873 5873 5872 5872 5872 5872 5872 5872 5872 5871 5872 5872 5872 5872 5873 5873 5874 5874 5875 5876 5877 5878 5879 5880 5881 5881 5882 5882 5882 5883 5883 5884 5885 5886 5886 5886 5886 5887 5887
5876 5875 5875 5874 5874 5874 5874 5874 5874 5873 5873 5873 5873 5873 5873 5873 5873 5873 5873 5873 5874 5875 5876 5877 5878 5879 5879 5881 5881 5882 5882 5883 5883 5884 5884 5884 5885 5886 5886 5886 5886 5887 5887
5878 5877 5876 5876 5875 5875 5875 5875 5875 5875 5875 5875 5874 5874 5874 5874 5875 5875 5875 5875 5876 5876 5877 5878 5879 5880 5880 5881 5882 5882 5883 5883 5884 5884 5885 5885 5885 5886 5886 5886 5886 5887 5887
5879 5879 5878 5877 5877 5876 5876 5877 5877 5876 5876 5876 5876 5875 5875 5876 5876 5876 5876 5876 5877 5877 5878 5879 5880 5880 5881 5882 5882 5883 5883 5884 5884 5885 5885 5885 5886 5886 5886 5887 5887 5887 5888
5881 5880 5880 5879 5878 5878 5878 5878 5878 5878 5877 5877 5877 5877 5876 5877 5877 5877 5877 5878 5878 5878 5879 5880 5880 5881 5881 5882 5883 5883 5883 5884 5885 5885 5886 5886 5886 5886 5887 5887 5887 5888 5888
5884 5882 5881 5881 5880 5879 5879 5879 5879 5879 5879 5878 5878 5878 5878 5878 5878 5878 5878 5879 5879 5879 5879 5880 5881 5881 5882 5882 5883 5883 5884 5884 5885 5885 5886 5886 5886 5886 5887 5887 5887 5888 5889
5886 5885 5884 5883 5882 5881 5881 5881 5881 5880 5880 5879 5879 5880 5879 5879 5879 5879 5879 5879 5879 5880 5880 5881 5881 5881 5882 5883 5883 5883 5884 5885 5885 5885 5886 5886 5886 5887 5887 5887 5888 5888 5889
5888 5887 5886 5885 5884 5883 5883 5883 5882 5882 5881 5880 5881 5881 5881 5881 5881 5881 5881 5881 5880 5880 5881 5881 5881 5882 5882 5883 5883 5884 5884 5885 5885 5885 5886 5886 5886 5887 5887 5887 5888 5888 5889
5890 5889 5887 5887 5886 5886 5885 5884 5883 5883 5883 5883 5882 5882 5882 5882 5881 5881 5882 5882 5881 5881 5881 5882 5882 5882 5883 5883 5884 5884 5885 5885 5885 5885 5886 5886 5886 5887 5887 5887 5888 5888 5889
5892 5891 5890 5889 5888 5888 5887 5886 5885 5885 5884 5884 5884 5884 5883 5883 5883 5883 5883 5882 5882 5882 5883 5883 5883 5883 5883 5884 5884 5885 5885 5885 5885 5885 5886 5886 5886 5886 5887 5887 5887 5888 5888
5894 5893 5892 5891 5890 5890 5889 5887 5887 5886 5886 5885 5885 5885 5885 5885 5884 5884 5884 5884 5883 5883 5883 5884 5884 5884 5884 5884 5884 5885 5885 5885 5885 5885 5885 5885 5886 5886 5886 5887 5887 5887 5887
5897 5896 5894 5893 5892 5891 5890 5889 5888 5887 5887 5887 5886 5886 5886 5886 5886 5885 5885 5885 5885 5885 5885 5885 5885 5885 5885 5885 5885 5885 5885 5885 5885 5885 5885 5885 5885 5885 5886 5886 5886 5886 5886
5899 5898 5897 5896 5894 5893 5892 5891 5890 5890 5889 5889 5888 5887 5887 5887 5887 5887 5887 5886 5886 5886 5886 5886 5886 5886 5885 5885 5885 5885 5885 5885 5884 5884 5884 5884 5884 5884 5884 5885 5885 5885 5885
5901 5900 5899 5898 5896 5895 5894 5893 5893 5892 5891 5891 5890 5889 5888 5888 5887 5887 5887 5887 5887 5887 5887 5887 5887 5886 5886 5886 5886 5885 5885 5885 5884 5884 5883 5883 5883 5883 5883 5883 5884 5884 5884
5904 5902 5901 5900 5898 5897 5896 5895 5895 5894 5893 5893 5892 5891 5890 5889 5889 5888 5888 5888 5888 5888 5888 5887 5888 5887 5887 5887 5886 5885 5885 5885 5884 5883 5883 5883 5882 5882 5882 5882 5882 5882 5882
5906 5905 5903 5902 5901 5899 5898 5897 5897 5896 5895 5894 5894 5893 5892 5891 5890 5889 5889 5889 5889 5889 5888 5888 5888 5887 5887 5887 5886 5885 5885 5884 5883 5883 5882 5882 5882 5881 5881 5881 5880 5880 5880
5909 5907 5905 5904 5903 5902 5900 5899 5899 5898 5897 5896 5895 5894 5893 5892 5891 5890 5891 5890 5890 5889 5889 5888 5888 5887 5887 5886 5886 5885 5884 5883 5883 5882 5881 5881 5880 5879 5879 5878 5878 5878 5877
5910 5909 5907 5906 5905 5903 5902 5901 5900 5899 5898 5897 5896 5895 5894 5893 5892 5892 5892 5891 5890 5890 5889 5888 5888 5887 5886 5885 5885 5884 5883 5883 5882 5881 5880 5879 5878 5878 5877 5876 5875 5875 5875
5912 5910 5909 5908 5906 5905 5904 5903 5902 5900 5899 5898 5896 5896 5895 5894 5893 5892 5892 5891 5890 5889 5888 5888 5887 5886 5885 5884 5883 5883 5882 5881 5881 5880 5879 5878 5877 5876 5875 5873 5872 5872 5871
5913 5912 5910 5909 5907 5906 5905 5904 5903 5901 5900 5899 5898 5897 5896 5895 5894 5893 5892 5891 5890 5889 5888 5887 5886 5885 5884 5883 5882 5881 5881 5880 5879 5878 5877 5875 5874 5873 5872 5871 5870 5869 5868
5914 5913 5911 5910 5909 5908 5906 5905 5904 5902 5901 5900 5899 5897 5896 5895 5894 5893 5892 5891 5890 5889 5887 5886 5885 5884 5883 5882 5881 5880 5879 5878 5877 5876 5874 5873 5872 5870 5869 5868 5867 5867 5866
5914 5913 5912 5911 5910 5908 5907 5906 5904 5903 5901 5900 5899 5898 5896 5895 5894 5893 5892 5891 5890 5888 5887 5886 5885 5883 5882 5881 5880 5878 5877 5876 5875 5873 5872 5870 5869 5868 5866 5865 5864 5863 5862